Regional Weather Roundup
Issued by NWS Green Bay, WI

Home | Current Version | Previous Version | Text Only | Print | Product List | Glossary On
Versions: 1 2 3 4 5 6 7 8 9 10 11 12 13 14 15 16 17 18 19 20 21 22 23 24 25 26 27 28 29 30 31 32 33 34 35 36 37 38 39 40 41 42 43 44 45 46 47 48 49 50
000
ASUS43 KGRB 011411
RWRGRB

NORTH-CENTRAL AND NORTHEAST WISCONSIN REGIONAL WEATHER ROUNDUP
NATIONAL WEATHER SERVICE GREEN BAY WI
900 AM CDT SAT AUG 01 2015

WIZ005-009-010>012-018-019-011500-
NORTH CENTRAL WISCONSIN

CITY           SKY/WX    TMP DP  RH WIND       PRES   REMARKS
IRONWOOD       SUNNY     64  55  72 W9        29.90S
MANITOWISH WTR SUNNY     65  56  72 NW6       29.94S
ARBOR VITAE    SUNNY     64  55  70 NW6       29.95R
EAGLE RIVER    SUNNY     65  51  60 NW10G16   29.94R
LAND O LAKES   SUNNY     67  52  59 NW8       29.94S
RHINELANDER    SUNNY     65  54  67 W7        29.95S
PHILLIPS       SUNNY     64  54  68 NW5       29.96S
ANTIGO         SUNNY     64  54  69 NW10      29.95S
TOMAHAWK       SUNNY     64  54  69 NW8       29.96S
MERRILL        NOT AVBL
$$

WIZ013-073-011500-
NORTHEAST WISCONSIN

CITY           SKY/WX    TMP DP  RH WIND       PRES   REMARKS
IRON MOUNTAIN  SUNNY     67  54  63 NW12      29.89R
MARINETTE      SUNNY     66  54  63 W6        29.88S
OCONTO         SUNNY     69  55  60 W9        29.90S
$$

WIZ017-030-035>037-045-011500-
CENTRAL WISCONSIN

CITY           SKY/WX    TMP DP  RH WIND       PRES   REMARKS
MEDFORD        SUNNY     67  53  60 NW7       29.98R
WAUSAU         SUNNY     69  51  52 NW14      29.95R
MOSINEE        MOSUNNY   68  54  60 NW7       29.98R
MARSHFIELD     PTSUNNY   69  52  54 NW6       29.98S
WISC RAPIDS    MOSUNNY   69  53  56 NW6       29.99R
STEVENS POINT  MOSUNNY   67  51  55 NW7       29.97S
WAUPACA        PTSUNNY   70  53  54 NW6       29.96S
SHAWANO        SUNNY     69  54  58 W6        29.94S
CLINTONVILLE   SUNNY     70  50  49 NW8       29.94S
$$

WIZ038-039-048-051-011500-
FOX VALLEY

CITY           SKY/WX    TMP DP  RH WIND       PRES   REMARKS
NWS GREEN BAY  SUNNY     70  56  61 NW9       29.93S
APPLETON       MOSUNNY   70  52  52 W8        29.95S
OSHKOSH        MOSUNNY   70  53  54 W9        29.95S
FOND DU LAC    MOSUNNY   72  54  53 NW10      29.96S
$$

WIZ022-050-052-011500-
EAST CENTRAL WISCONSIN

CITY           SKY/WX    TMP DP  RH WIND       PRES   REMARKS
STURGEON BAY   SUNNY     66  54  63 W7        29.92F
MANITOWOC      SUNNY     72  54  53 MISG      29.93S
SHEBOYGAN      SUNNY     72  56  57 NW8       29.94S
$$

LMZ563-521-522-541>543-011500-
LAKESHORE

STATION/POSITION TIME  TEMP    WIND        PRES    VSBY  WAVE
                       AIR SEA DIR/SP/G                  HT/PER
                 (UTC) (F)     (DEG/KT/KT) (MB)    (MI)  (FT/S)
SHEBOYGAN LKSHOR 1400   71     280/ 10/ 12 1013.9R
KEWAUNEE LKSHORE 1300   66     300/  7/ 11 1012.2R
ALGOMA MARINA    1327          310/  7/ 11   N/A
NORTHPORT PIER   1300   67     290/  6/ 10 1011.9S
N MID LAKE BUOY  1350   65 68  280/ 10/ 12 1011.3R         1/ 3
S GREEN BAY BUOY 1300   62 66  280/ 10/ 12 1014.1
SISTER BAY LKSHO 1344   71     330/  7/  8   N/A
CHAMBERS ISLAND  1300   66     250/  4/  9 1011.9S
MENOMINEE LKSHOR 1300   66     260/  7/ 12 1012.9R
$$


USA.gov is the U.S. government's official web portal to all federal, state and local government web resources and services.